PAA812 YMML-YSSY

Flight info

Callsign PAA812
Flight time 1h 2m
Altitude 39000
Route ML H129 DOSEL Y59 TESAT
Aircraft B742/H-SDFHIRWXY/L

Departure

Time 2026-04-22 21:39
Airport Melbourne Airport (YMML)

Arrival

Time 2026-04-22 22:41
Airport Sydney Kingsford Smith International Airport (YSSY)
Time Latitude Longitude Altitude Speed Heading
2026-04-22 21:07 -37.66744 144.84543 444 ft 0 kts 171°
2026-04-22 21:28 -37.66732 144.84540 444 ft 2 kts 171°
2026-04-22 21:28 -37.66717 144.84537 444 ft 2 kts 171°
2026-04-22 21:28 -37.66701 144.84535 444 ft 2 kts 185°
2026-04-22 21:28 -37.66687 144.84540 443 ft 2 kts 202°
2026-04-22 21:29 -37.66674 144.84549 443 ft 2 kts 219°
2026-04-22 21:29 -37.66664 144.84563 444 ft 2 kts 235°
2026-04-22 21:29 -37.66657 144.84580 444 ft 2 kts 251°
2026-04-22 21:29 -37.66655 144.84592 444 ft 1 kts 261°
2026-04-22 21:33 -37.66659 144.84561 444 ft 6 kts 261°
2026-04-22 21:34 -37.66668 144.84494 443 ft 8 kts 259°
2026-04-22 21:34 -37.66679 144.84410 443 ft 10 kts 262°
2026-04-22 21:34 -37.66690 144.84309 443 ft 12 kts 262°
2026-04-22 21:34 -37.66704 144.84190 444 ft 14 kts 262°
2026-04-22 21:35 -37.66719 144.84065 443 ft 14 kts 261°
2026-04-22 21:35 -37.66778 144.83978 444 ft 14 kts 179°
2026-04-22 21:35 -37.66888 144.84004 443 ft 20 kts 171°
2026-04-22 21:35 -37.67047 144.84035 444 ft 23 kts 172°
2026-04-22 21:36 -37.67210 144.84064 444 ft 23 kts 171°
2026-04-22 21:36 -37.67370 144.84093 444 ft 23 kts 172°
2026-04-22 21:36 -37.67528 144.84123 444 ft 22 kts 172°
2026-04-22 21:36 -37.67684 144.84155 443 ft 22 kts 169°
2026-04-22 21:37 -37.67812 144.84178 444 ft 13 kts 176°
2026-04-22 21:37 -37.67874 144.84111 444 ft 12 kts 265°
2026-04-22 21:37 -37.67881 144.84007 444 ft 11 kts 281°
2026-04-22 21:37 -37.67826 144.83958 443 ft 10 kts 354°
2026-04-22 21:38 -37.67808 144.83955 444 ft 0 kts 351°
2026-04-22 21:38 -37.67623 144.83922 444 ft 63 kts 351°
2026-04-22 21:38 -37.66935 144.83794 444 ft 132 kts 352°
2026-04-22 21:38 -37.65884 144.83586 692 ft 165 kts 351°
2026-04-22 21:39 -37.64809 144.83342 1526 ft 156 kts 349°
2026-04-22 21:39 -37.63699 144.83006 1706 ft 175 kts 346°
2026-04-22 21:39 -37.62434 144.82719 1862 ft 195 kts 351°
2026-04-22 21:39 -37.60988 144.82440 2076 ft 222 kts 352°
2026-04-22 21:40 -37.59364 144.82124 2352 ft 248 kts 352°
2026-04-22 21:40 -37.57621 144.81787 3053 ft 256 kts 352°
2026-04-22 21:40 -37.55881 144.81439 3861 ft 260 kts 352°
2026-04-22 21:40 -37.54086 144.81071 4654 ft 264 kts 352°
2026-04-22 21:41 -37.52254 144.80772 5375 ft 269 kts
2026-04-22 21:41 -37.50470 144.81470 6105 ft 270 kts 35°
2026-04-22 21:41 -37.49248 144.83189 6851 ft 271 kts 65°
2026-04-22 21:41 -37.48718 144.85451 7629 ft 272 kts 80°
2026-04-22 21:42 -37.48388 144.87831 8352 ft 278 kts 82°
2026-04-22 21:42 -37.48074 144.90208 9052 ft 284 kts 82°
2026-04-22 21:42 -37.47743 144.92693 9643 ft 294 kts 82°
2026-04-22 21:42 -37.47389 144.95308 10065 ft 311 kts 82°
2026-04-22 21:43 -37.47019 144.98039 10438 ft 331 kts 82°
2026-04-22 21:43 -37.46630 145.00996 10847 ft 349 kts 81°
2026-04-22 21:43 -37.46036 145.03963 11692 ft 353 kts 71°
2026-04-22 21:43 -37.44966 145.06755 12502 ft 357 kts 57°
2026-04-22 21:44 -37.43418 145.09229 13259 ft 362 kts 46°
2026-04-22 21:44 -37.41598 145.11482 14049 ft 365 kts 41°
2026-04-22 21:44 -37.39677 145.13635 14747 ft 371 kts 40°
2026-04-22 21:44 -37.37716 145.15782 15472 ft 376 kts 41°
2026-04-22 21:45 -37.35762 145.17928 16172 ft 380 kts 41°
2026-04-22 21:45 -37.33776 145.20126 16842 ft 384 kts 42°
2026-04-22 21:45 -37.31764 145.22362 17504 ft 389 kts 42°
2026-04-22 21:45 -37.29724 145.24629 18148 ft 394 kts 43°
2026-04-22 21:46 -37.27666 145.26920 18795 ft 398 kts 43°
2026-04-22 21:46 -37.25554 145.29266 19445 ft 403 kts 43°
2026-04-22 21:46 -37.23445 145.31609 20067 ft 408 kts 43°
2026-04-22 21:46 -37.21329 145.33957 20726 ft 412 kts 43°
2026-04-22 21:47 -37.19155 145.36365 21333 ft 417 kts 43°
2026-04-22 21:47 -37.17002 145.38786 21934 ft 420 kts 46°
2026-04-22 21:47 -37.15050 145.41540 22514 ft 423 kts 54°
2026-04-22 21:47 -37.13277 145.44508 23094 ft 427 kts 57°
2026-04-22 21:48 -37.11553 145.47565 23677 ft 430 kts 58°
2026-04-22 21:48 -37.09841 145.50623 24251 ft 434 kts 58°
2026-04-22 21:48 -37.08073 145.53749 24841 ft 438 kts 58°
2026-04-22 21:48 -37.06297 145.56863 25426 ft 441 kts 57°
2026-04-22 21:49 -37.04501 145.59990 25973 ft 445 kts 57°
2026-04-22 21:49 -37.02675 145.63155 26527 ft 448 kts 57°
2026-04-22 21:49 -37.00813 145.66377 27045 ft 452 kts 57°
2026-04-22 21:49 -36.98936 145.69621 27604 ft 455 kts 57°
2026-04-22 21:50 -36.97071 145.72844 28126 ft 458 kts 57°
2026-04-22 21:50 -36.95193 145.76083 28634 ft 462 kts 57°
2026-04-22 21:50 -36.93279 145.79384 29134 ft 465 kts 57°
2026-04-22 21:50 -36.91389 145.82638 29620 ft 468 kts 57°
2026-04-22 21:51 -36.89469 145.85942 30079 ft 471 kts 57°
2026-04-22 21:51 -36.87534 145.89267 30531 ft 474 kts 57°
2026-04-22 21:51 -36.85585 145.92615 30924 ft 478 kts 57°
2026-04-22 21:52 -36.81659 145.99350 31667 ft 486 kts 57°
2026-04-22 21:52 -36.79660 146.02773 32066 ft 490 kts 57°
2026-04-22 21:52 -36.77657 146.06200 32441 ft 494 kts 57°
2026-04-22 21:52 -36.75632 146.09659 32758 ft 498 kts 57°
2026-04-22 21:53 -36.73584 146.13153 33148 ft 501 kts 57°
2026-04-22 21:53 -36.71534 146.16650 33514 ft 504 kts 57°
2026-04-22 21:53 -36.69433 146.20230 33821 ft 509 kts 57°
2026-04-22 21:53 -36.67352 146.23772 34188 ft 512 kts 57°
2026-04-22 21:54 -36.65243 146.27357 34489 ft 515 kts 57°
2026-04-22 21:54 -36.63148 146.30913 34986 ft 514 kts 57°
2026-04-22 21:54 -36.61044 146.34479 35541 ft 511 kts 57°
2026-04-22 21:54 -36.58945 146.38034 36057 ft 509 kts 57°
2026-04-22 21:55 -36.56848 146.41582 36481 ft 509 kts 57°
2026-04-22 21:55 -36.54749 146.45132 36881 ft 509 kts 57°
2026-04-22 21:55 -36.52653 146.48675 37246 ft 509 kts 57°
2026-04-22 21:55 -36.50557 146.52214 37383 ft 515 kts 57°
2026-04-22 21:56 -36.48424 146.55815 37404 ft 521 kts 57°
2026-04-22 21:56 -36.44105 146.63092 37403 ft 531 kts 57°
2026-04-22 21:57 -36.39741 146.70416 37403 ft 520 kts 56°
2026-04-22 21:57 -36.35518 146.77483 37406 ft 502 kts 57°
2026-04-22 21:58 -36.31338 146.84474 37401 ft 505 kts 57°
2026-04-22 21:58 -36.27105 146.91553 37396 ft 512 kts 56°
2026-04-22 21:59 -36.22900 146.98553 37396 ft 503 kts 56°
2026-04-22 21:59 -36.18729 147.05487 37400 ft 506 kts 56°
2026-04-22 22:00 -36.14518 147.12505 37395 ft 507 kts 57°
2026-04-22 22:00 -36.10342 147.19470 37398 ft 503 kts 57°
2026-04-22 22:01 -36.06155 147.26443 37392 ft 506 kts 56°
2026-04-22 22:01 -36.01989 147.33363 37398 ft 503 kts 56°
2026-04-22 22:02 -35.97813 147.40283 37397 ft 504 kts 56°
2026-04-22 22:02 -35.93619 147.47224 37400 ft 505 kts 56°
2026-04-22 22:03 -35.89454 147.54099 37404 ft 503 kts 56°
2026-04-22 22:03 -35.85263 147.60991 37407 ft 505 kts 56°
2026-04-22 22:04 -35.81039 147.67894 37406 ft 504 kts 55°
2026-04-22 22:04 -35.76823 147.74744 37409 ft 502 kts 55°
2026-04-22 22:05 -35.72614 147.81561 37414 ft 504 kts 55°
2026-04-22 22:05 -35.68374 147.88413 37416 ft 503 kts 55°
2026-04-22 22:06 -35.64146 147.95227 37412 ft 502 kts 55°
2026-04-22 22:06 -35.59924 148.02023 37415 ft 503 kts 55°
2026-04-22 22:07 -35.55690 148.08824 37419 ft 502 kts 55°
2026-04-22 22:07 -35.51460 148.15607 37421 ft 502 kts 54°
2026-04-22 22:08 -35.47199 148.22424 37419 ft 502 kts 54°
2026-04-22 22:08 -35.42979 148.29164 37420 ft 502 kts 54°
2026-04-22 22:09 -35.38721 148.35979 37419 ft 502 kts 54°
2026-04-22 22:09 -35.34456 148.42810 37423 ft 501 kts 54°
2026-04-22 22:10 -35.30222 148.49576 37428 ft 502 kts 54°
2026-04-22 22:10 -35.25957 148.56377 37427 ft 501 kts 54°
2026-04-22 22:11 -35.21707 148.63139 37422 ft 501 kts 54°
2026-04-22 22:11 -35.17484 148.69849 37415 ft 502 kts 54°
2026-04-22 22:12 -35.13228 148.76594 37418 ft 501 kts 54°
2026-04-22 22:12 -35.08979 148.83316 37411 ft 502 kts 54°
2026-04-22 22:13 -35.04714 148.90053 37409 ft 501 kts 54°
2026-04-22 22:13 -35.00441 148.96786 37410 ft 502 kts 54°
2026-04-22 22:14 -34.96193 149.03470 37409 ft 503 kts 54°
2026-04-22 22:14 -34.91909 149.10196 37409 ft 501 kts 53°
2026-04-22 22:15 -34.87638 149.16888 37115 ft 508 kts 53°
2026-04-22 22:15 -34.85446 149.20322 36460 ft 513 kts 53°
2026-04-22 22:15 -34.83266 149.23732 35805 ft 509 kts 53°
2026-04-22 22:15 -34.81126 149.27074 35151 ft 503 kts 53°
2026-04-22 22:16 -34.78978 149.30426 34489 ft 500 kts 53°
2026-04-22 22:16 -34.76836 149.33763 33817 ft 501 kts 53°
2026-04-22 22:16 -34.74704 149.37087 33149 ft 505 kts 54°
2026-04-22 22:16 -34.72715 149.40587 32482 ft 508 kts 60°
2026-04-22 22:17 -34.70942 149.44327 31809 ft 508 kts 63°
2026-04-22 22:17 -34.69297 149.48103 31143 ft 506 kts 65°
2026-04-22 22:17 -34.67699 149.51872 30483 ft 507 kts 65°
2026-04-22 22:17 -34.66095 149.55652 29825 ft 510 kts 65°
2026-04-22 22:18 -34.64436 149.59520 29158 ft 513 kts 64°
2026-04-22 22:18 -34.62783 149.63332 28500 ft 513 kts 64°
2026-04-22 22:18 -34.61121 149.67137 27848 ft 512 kts 63°
2026-04-22 22:18 -34.59455 149.70929 27198 ft 513 kts 63°
2026-04-22 22:19 -34.57789 149.74715 26551 ft 514 kts 63°
2026-04-22 22:19 -34.56105 149.78534 25901 ft 515 kts 63°
2026-04-22 22:19 -34.54413 149.82365 25259 ft 515 kts 63°
2026-04-22 22:19 -34.52721 149.86194 24624 ft 515 kts 63°
2026-04-22 22:20 -34.51027 149.90025 23995 ft 516 kts 63°
2026-04-22 22:20 -34.49349 149.93814 23376 ft 517 kts 63°
2026-04-22 22:20 -34.47640 149.97665 22752 ft 517 kts 63°
2026-04-22 22:20 -34.45950 150.01465 22134 ft 518 kts 63°
2026-04-22 22:21 -34.44239 150.05306 21511 ft 519 kts 63°
2026-04-22 22:21 -34.42519 150.09166 20892 ft 520 kts 63°
2026-04-22 22:21 -34.40810 150.12996 20270 ft 520 kts 64°
2026-04-22 22:21 -34.39323 150.16930 19647 ft 518 kts 72°
2026-04-22 22:22 -34.38477 150.21191 19016 ft 516 kts 84°
2026-04-22 22:22 -34.38342 150.25415 18391 ft 503 kts 95°
2026-04-22 22:22 -34.38830 150.29549 17771 ft 493 kts 100°
2026-04-22 22:22 -34.38991 150.33708 17140 ft 493 kts 88°
2026-04-22 22:23 -34.38498 150.37750 16544 ft 492 kts 80°
2026-04-22 22:23 -34.37738 150.41615 15938 ft 455 kts 78°
2026-04-22 22:23 -34.36952 150.45197 15324 ft 421 kts 77°
2026-04-22 22:23 -34.36133 150.48451 14719 ft 394 kts 70°
2026-04-22 22:24 -34.34978 150.51326 14117 ft 373 kts 64°
2026-04-22 22:24 -34.33756 150.54004 13525 ft 362 kts 63°
2026-04-22 22:24 -34.32516 150.56650 12928 ft 360 kts 63°
2026-04-22 22:24 -34.31280 150.59291 12311 ft 359 kts 63°
2026-04-22 22:25 -34.30054 150.61908 11698 ft 358 kts 63°
2026-04-22 22:25 -34.28818 150.64537 11073 ft 356 kts 63°
2026-04-22 22:25 -34.27595 150.67128 10467 ft 354 kts 63°
2026-04-22 22:25 -34.26386 150.69690 9863 ft 352 kts 62°
2026-04-22 22:26 -34.25173 150.72266 9249 ft 350 kts 63°
2026-04-22 22:26 -34.23984 150.74786 8649 ft 348 kts 63°
2026-04-22 22:26 -34.22778 150.77347 8032 ft 346 kts 63°
2026-04-22 22:26 -34.21602 150.79851 7424 ft 344 kts 63°
2026-04-22 22:27 -34.20419 150.82367 6809 ft 342 kts 63°
2026-04-22 22:27 -34.19204 150.84807 6299 ft 337 kts 56°
2026-04-22 22:27 -34.17538 150.86787 5916 ft 333 kts 39°
2026-04-22 22:27 -34.15594 150.88274 5574 ft 325 kts 33°
2026-04-22 22:28 -34.13691 150.89607 5427 ft 312 kts 33°
2026-04-22 22:28 -34.11842 150.90887 5393 ft 295 kts 32°
2026-04-22 22:28 -34.10110 150.92079 5385 ft 278 kts 33°
2026-04-22 22:28 -34.08447 150.93193 5378 ft 270 kts 27°
2026-04-22 22:29 -34.06615 150.93703 5390 ft 276 kts
2026-04-22 22:29 -34.04693 150.93930 5381 ft 274 kts 11°
2026-04-22 22:29 -34.02839 150.94496 5351 ft 273 kts 21°
2026-04-22 22:29 -34.01035 150.95201 5269 ft 271 kts 21°
2026-04-22 22:30 -33.99244 150.95917 5056 ft 270 kts 21°
2026-04-22 22:30 -33.97454 150.96637 4847 ft 267 kts 21°
2026-04-22 22:30 -33.95673 150.97267 4662 ft 270 kts 12°
2026-04-22 22:30 -33.93795 150.97528 4484 ft 271 kts
2026-04-22 22:31 -33.91910 150.97729 4303 ft 270 kts
2026-04-22 22:31 -33.90027 150.97928 4121 ft 270 kts
2026-04-22 22:31 -33.88173 150.98125 3937 ft 269 kts
2026-04-22 22:31 -33.86291 150.98329 3755 ft 269 kts
2026-04-22 22:32 -33.84436 150.98534 3573 ft 267 kts
2026-04-22 22:32 -33.82579 150.98743 3430 ft 266 kts
2026-04-22 22:32 -33.80740 150.98950 3394 ft 266 kts
2026-04-22 22:32 -33.78893 150.99159 3384 ft 267 kts
2026-04-22 22:33 -33.77029 150.99368 3381 ft 267 kts
2026-04-22 22:33 -33.75210 150.99573 3379 ft 256 kts
2026-04-22 22:33 -33.73582 151.00120 3373 ft 232 kts 37°
2026-04-22 22:33 -33.72620 151.01506 3373 ft 207 kts 75°
2026-04-22 22:34 -33.72492 151.03120 3368 ft 188 kts 88°
2026-04-22 22:34 -33.72383 151.04652 3379 ft 182 kts 87°
2026-04-22 22:34 -33.72413 151.06134 3374 ft 178 kts 114°
2026-04-22 22:34 -33.73011 151.07445 3378 ft 178 kts 122°
2026-04-22 22:35 -33.73677 151.08708 3379 ft 178 kts 122°
2026-04-22 22:35 -33.74342 151.09956 3380 ft 176 kts 123°
2026-04-22 22:35 -33.75003 151.11198 3326 ft 180 kts 123°
2026-04-22 22:35 -33.75829 151.12344 2948 ft 186 kts 149°
2026-04-22 22:36 -33.77034 151.12947 2600 ft 190 kts 161°
2026-04-22 22:36 -33.78283 151.13339 2527 ft 177 kts 165°
2026-04-22 22:36 -33.79424 151.13652 2553 ft 158 kts 165°
2026-04-22 22:36 -33.80469 151.13927 2430 ft 145 kts 165°
2026-04-22 22:37 -33.81377 151.14163 2262 ft 125 kts 165°
2026-04-22 22:37 -33.82165 151.14368 1881 ft 112 kts 165°
2026-04-22 22:37 -33.83002 151.14592 1469 ft 132 kts 166°
2026-04-22 22:37 -33.83878 151.14815 1408 ft 129 kts 166°
2026-04-22 22:38 -33.84742 151.15039 1378 ft 127 kts 166°
2026-04-22 22:38 -33.85622 151.15265 1337 ft 128 kts 166°
2026-04-22 22:38 -33.86498 151.15491 1291 ft 130 kts 166°
2026-04-22 22:38 -33.87393 151.15723 1147 ft 130 kts 166°
2026-04-22 22:39 -33.88274 151.15951 990 ft 130 kts 167°
2026-04-22 22:39 -33.89164 151.16182 822 ft 131 kts 167°
2026-04-22 22:39 -33.90078 151.16419 666 ft 135 kts 167°
2026-04-22 22:39 -33.90994 151.16655 483 ft 138 kts 167°
2026-04-22 22:40 -33.91951 151.16908 323 ft 144 kts 168°
2026-04-22 22:40 -33.92971 151.17171 106 ft 154 kts 168°
2026-04-22 22:40 -33.94028 151.17444 38 ft 150 kts 168°
2026-04-22 22:40 -33.94913 151.17671 30 ft 102 kts 168°
2026-04-22 22:41 -33.95439 151.17810 30 ft 47 kts 169°
2026-04-22 22:41 -33.95728 151.17883 30 ft 41 kts 167°
2026-04-22 22:41 -33.95883 151.17870 30 ft 19 kts 235°
2026-04-22 22:41 -33.95865 151.17732 30 ft 17 kts 318°
2026-04-22 22:42 -33.95771 151.17685 30 ft 15 kts 349°
2026-04-22 22:42 -33.95650 151.17656 30 ft 20 kts 349°
2026-04-22 22:42 -33.95501 151.17621 30 ft 22 kts 348°
2026-04-22 22:42 -33.95353 151.17578 30 ft 21 kts 347°
2026-04-22 22:43 -33.95211 151.17532 30 ft 19 kts 343°
2026-04-22 22:43 -33.95099 151.17511 30 ft 15 kts 349°
2026-04-22 22:43 -33.94997 151.17491 30 ft 14 kts 349°
2026-04-22 22:43 -33.94898 151.17465 30 ft 14 kts 350°
2026-04-22 22:44 -33.94799 151.17452 30 ft 14 kts 354°
2026-04-22 22:44 -33.94705 151.17427 30 ft 13 kts 345°
2026-04-22 22:44 -33.94619 151.17401 30 ft 11 kts 345°
2026-04-22 22:44 -33.94550 151.17378 30 ft 10 kts 343°
2026-04-22 22:45 -33.94484 151.17351 30 ft 10 kts 340°
2026-04-22 22:45 -33.94427 151.17331 30 ft 7 kts 343°
2026-04-22 22:45 -33.94389 151.17316 30 ft 4 kts 341°
2026-04-22 22:45 -33.94367 151.17307 30 ft 2 kts 342°
2026-04-22 22:46 -33.94320 151.17294 30 ft 10 kts 349°
2026-04-22 22:46 -33.94254 151.17279 30 ft 7 kts 347°
2026-04-22 22:46 -33.94208 151.17268 30 ft 9 kts 351°
2026-04-22 22:46 -33.94117 151.17248 30 ft 14 kts 348°
2026-04-22 22:47 -33.94018 151.17227 30 ft 14 kts 355°
2026-04-22 22:47 -33.93920 151.17226 30 ft 13 kts
2026-04-22 22:47 -33.93828 151.17212 30 ft 13 kts 341°
2026-04-22 22:47 -33.93743 151.17174 30 ft 12 kts 341°
2026-04-22 22:48 -33.93657 151.17143 30 ft 12 kts 346°
2026-04-22 22:48 -33.93573 151.17119 30 ft 12 kts 347°
2026-04-22 22:48 -33.93507 151.17065 30 ft 11 kts 289°
2026-04-22 22:48 -33.93515 151.16974 30 ft 11 kts 259°
2026-04-22 22:49 -33.93557 151.16913 30 ft 9 kts 182°
2026-04-22 22:49 -33.93619 151.16921 30 ft 4 kts 179°
2026-04-22 22:49 -33.93629 151.16921 30 ft 0 kts 179°
2026-04-22 22:49 -33.93630 151.16921 30 ft 0 kts 179°